Wind_Speed
2 2 1 1 1 1 2 2 2 2 2 2 2 2 1 2 2 2 2 2 2 1 1 2 3 4 5 7 9 9 11 11 7 5 3 0 3 5 4 3 4 5 4 3 2 2 3 3 4 4 2 2 3 1 1 2 1 1 1 1 2 2 2 4 6 4 2 5 5 1 1 3 2 1 1 2 3 3 3 3 7 8 9 8 6 7 8 10
2 1 1 1 1 2 2 3 3 3 3 3 3 2 2 3 3 3 3 2 2 1 1 2 3 4 5 7 8 9 12 9 2 6 6 2 5 6 4 4 5 5 4 2 2 2 2 2 3 2 1 1 1 1 0 1 2 1 0 0 1 2 1 1 3 3 1 4 5 2 0 2 3 2 2 2 1 2 2 5 7 6 8 8 9 10 11 12
1 1 1 1 1 2 2 3 4 4 4 3 3 2 3 3 3 3 3 2 1 1 1 2 3 4 5 6 7 9 11 5 1 4 5 4 5 5 4 5 5 6 4 2 2 2 3 3 2 1 1 1 2 1 0 2 2 0 1 0 3 2 1 1 2 1 1 2 2 3 2 3 1 1 2 4 4 1 2 4 2 2 5 6 8 11 11 11
1 0 1 2 2 3 3 3 4 4 4 3 3 3 3 3 2 3 2 2 1 1 2 3 4 4 4 5 5 8 10 4 2 2 2 4 4 4 4 5 5 5 3 2 3 4 5 4 4 2 0 1 2 1 1 3 2 1 1 2 4 2 1 3 3 1 1 1 1 2 3 3 1 1 3 4 5 2 4 5 4 3 5 5 7 9 10 11
3 2 1 2 3 3 3 3 4 4 4 4 4 4 3 2 2 2 2 2 1 2 2 3 3 4 4 4 3 6 8 3 2 1 2 4 3 4 4 4 5 3 2 3 4 5 5 4 3 2 1 1 1 0 1 3 2 1 1 3 4 2 1 4 3 2 2 2 2 2 2 1 2 2 3 4 5 0 3 5 5 4 5 4 6 7 8 11
4 3 3 3 3 3 3 4 4 4 4 4 5 4 3 2 2 2 2 2 2 2 2 3 3 3 3 2 3 4 5 2 2 4 3 4 3 3 4 4 4 4 2 3 4 4 3 2 1 1 1 1 1 1 2 2 2 1 2 1 1 2 1 3 4 4 4 3 3 3 0 1 3 3 2 2 3 3 4 4 4 5 4 4 5 7 8 10
5 4 4 4 4 4 4 4 4 5 5 5 5 4 3 3 3 2 2 2 2 2 2 2 2 2 1 1 1 1 1 2 2 6 5 3 3 3 4 5 4 4 3 3 4 2 2 1 1 1 1 1 0 1 2 0 1 2 1 2 2 2 3 1 3 3 5 5 3 2 1 3 5 3 2 2 2 4 3 4 4 4 5 5 7 8 8 9
6 5 5 5 5 5 5 5 5 5 6 5 5 4 4 3 3 2 2 2 2 2 2 2 2 1 0 1 0 1 1 1 2 5 5 4 4 4 5 5 5 4 3 3 3 3 3 2 2 2 1 2 1 2 1 1 2 1 0 2 2 2 4 3 3 4 5 5 2 3 4 5 3 2 3 3 4 4 3 4 3 3 6 7 8 8 8 8
7 6 5 6 5 5 6 6 5 6 6 6 5 4 4 3 3 3 3 2 2 2 2 1 1 1 1 2 0 3 1 2 2 3 4 4 5 5 5 5 6 5 4 4 4 4 4 2 2 3 1 3 2 2 0 3 0 1 1 1 1 2 3 3 5 5 5 3 3 5 5 2 2 2 3 3 4 4 4 4 3 4 7 8 7 8 8 8
9 7 6 6 6 6 7 6 6 6 6 6 5 5 4 4 3 3 2 2 2 2 2 1 0 1 2 3 1 3 1 3 2 2 2 4 5 6 6 5 5 6 5 4 5 5 2 2 4 3 2 4 2 1 0 2 1 1 1 3 4 3 2 3 4 3 2 2 4 5 3 3 2 2 1 4 6 5 4 5 5 5 7 7 6 6 6 7
9 8 7 6 6 7 7 6 7 7 7 6 5 5 4 3 3 3 2 2 2 1 1 1 1 2 2 3 3 3 2 3 2 3 3 4 5 6 6 6 6 6 6 4 5 5 2 4 8 3 1 3 4 2 0 0 1 1 3 5 5 4 3 2 2 1 1 2 4 5 2 4 3 2 1 4 6 5 4 6 5 5 5 4 4 5 5 7
10 9 8 7 6 6 6 6 7 7 7 6 5 5 4 3 3 2 2 2 2 2 2 1 2 3 2 2 4 3 4 4 4 4 3 4 5 6 6 6 6 6 5 4 6 6 3 8 10 3 1 3 4 2 2 1 1 1 3 5 6 5 3 1 1 0 1 1 2 4 3 4 5 3 4 4 5 5 4 5 4 4 3 3 4 4 5 6
11 9 10 9 7 6 6 6 6 7 7 6 5 4 3 3 2 2 2 2 2 2 1 2 3 4 2 2 3 5 6 6 5 4 4 4 5 5 6 6 6 5 5 4 7 7 5 9 7 3 2 2 2 2 3 3 1 1 0 3 6 6 1 2 1 1 1 2 2 3 4 3 6 5 4 3 4 5 3 3 3 2 3 3 4 3 4 6
12 10 11 10 7 6 6 6 7 6 7 5 5 4 3 2 2 2 2 2 2 2 1 2 4 5 2 2 1 4 7 6 5 5 5 5 6 6 6 5 5 5 4 5 8 7 7 9 7 6 2 2 3 4 3 2 1 2 1 1 2 4 1 3 1 2 1 2 2 5 5 1 7 6 4 2 2 5 3 3 2 2 3 3 3 3 3 5
13 9 12 12 7 7 7 7 7 7 6 5 5 4 3 2 2 1 1 1 0 2 3 4 5 4 1 3 1 3 5 5 7 8 7 8 8 6 6 7 7 6 6 7 9 9 9 9 7 5 2 1 3 5 2 1 0 1 3 3 2 2 1 3 2 2 1 2 2 5 4 0 6 6 5 3 2 5 4 3 2 2 3 2 2 2 2 4
14 12 14 13 7 7 8 7 8 7 6 5 5 4 3 2 1 1 2 2 3 4 3 4 6 3 2 2 2 2 4 4 6 8 9 10 8 7 10 11 10 9 9 10 11 11 8 6 3 1 1 2 4 4 2 2 2 1 3 4 2 2 3 1 2 2 2 1 2 4 3 1 4 5 4 2 2 5 5 3 2 2 2 2 1 1 2 3
15 14 14 12 7 7 8 7 6 7 6 5 4 3 3 3 2 3 4 4 4 4 3 4 6 3 3 1 2 3 3 4 7 8 10 10 8 11 13 9 7 9 10 10 9 6 4 3 1 1 1 1 3 3 3 5 4 2 2 4 3 3 3 2 2 2 1 2 2 2 4 3 4 5 2 2 1 4 5 4 3 2 1 1 1 1 2 2
16 14 12 9 7 9 9 5 6 6 4 3 2 3 4 4 3 3 5 6 6 4 2 4 4 2 4 3 3 2 5 5 8 8 9 9 11 13 10 6 6 8 9 6 3 2 1 1 1 2 2 3 4 5 6 5 3 3 3 4 3 3 5 4 2 1 1 3 4 3 6 6 5 5 2 2 2 4 5 4 3 3 2 2 1 2 2 2
16 14 10 8 10 12 10 5 8 6 3 1 2 5 5 3 2 2 5 4 4 3 1 4 5 2 1 3 3 5 7 8 8 8 8 10 12 10 7 7 6 5 6 4 3 2 1 2 2 3 5 7 8 10 9 2 2 2 3 3 4 4 5 3 1 1 2 4 7 7 10 9 6 8 5 4 3 4 4 4 4 4 3 3 2 2 2 2
17 14 10 9 12 11 8 6 9 6 4 3 4 6 3 2 2 2 4 4 6 4 1 4 7 1 1 2 5 8 8 7 5 5 10 11 12 9 5 5 3 2 4 4 4 3 1 4 6 7 7 9 12 11 5 3 4 2 2 2 5 6 6 1 2 1 1 4 7 7 10 12 9 7 7 5 4 4 5 5 5 5 4 4 4 4 3 3
19 16 12 11 10 9 8 6 9 8 5 5 5 4 2 2 2 1 2 6 10 8 4 3 3 2 0 4 10 11 6 3 2 4 11 12 11 9 4 4 5 5 3 1 4 2 2 7 10 8 3 5 8 7 3 3 3 2 3 4 5 7 7 2 2 1 1 3 6 3 6 13 11 4 7 5 5 6 5 5 5 5 5 4 4 5 4 3
20 17 13 11 12 13 9 5 9 10 5 6 6 4 4 2 1 1 0 4 7 10 8 3 2 5 1 4 11 10 3 3 3 5 11 11 8 6 4 6 8 6 4 4 4 3 4 9 9 3 6 5 3 4 6 5 4 3 3 4 5 4 4 3 2 2 2 3 4 1 5 12 9 4 7 6 6 4 3 3 3 3 4 4 4 3 4 4
21 19 16 13 15 17 11 6 9 9 8 9 8 7 3 1 2 3 1 4 3 5 6 5 6 8 6 4 9 10 5 5 6 7 12 12 5 3 6 9 8 5 6 9 8 5 5 7 5 6 8 7 4 4 7 5 4 6 4 5 6 2 2 4 1 3 3 2 3 3 5 10 8 4 7 6 5 3 2 2 2 2 2 2 2 2 3 5
22 21 17 15 18 18 11 7 8 9 12 11 12 13 4 2 5 2 1 3 3 3 4 6 5 7 8 5 10 14 7 4 4 7 16 15 6 3 6 8 6 5 8 12 11 10 5 1 1 8 9 9 6 5 8 6 5 7 7 8 8 5 6 7 1 2 3 3 2 3 7 9 8 7 5 5 5 4 3 4 3 3 2 2 2 2 3 4
22 21 17 17 20 17 10 9 10 12 12 11 15 17 8 3 4 2 1 3 4 2 1 4 5 6 8 8 12 12 3 3 3 5 16 15 7 6 4 3 4 8 10 9 8 10 5 3 5 8 7 8 7 6 9 8 5 5 9 12 12 9 8 5 2 0 4 4 3 2 6 5 2 5 5 4 5 5 4 4 6 5 5 5 4 5 4 3
22 21 19 21 20 15 12 8 11 13 11 12 16 13 11 8 5 3 1 3 5 3 3 5 6 7 10 8 10 8 2 4 1 4 14 12 5 4 3 3 1 5 7 6 4 5 2 3 5 6 7 7 7 6 8 8 6 5 4 9 12 10 6 5 5 4 4 3 1 1 6 5 1 3 3 4 4 5 5 6 7 7 6 7 6 6 6 5
23 22 22 24 21 19 13 5 10 13 8 10 13 12 14 12 8 4 1 4 6 4 5 2 2 6 9 6 7 8 2 3 4 4 6 6 4 2 3 7 4 1 4 4 3 2 4 5 3 5 6 7 7 6 7 9 7 3 1 3 8 8 8 8 7 6 3 2 0 3 4 5 6 3 3 4 4 6 8 9 9 9 9 9 8 7 7 6
26 24 24 25 23 23 15 6 9 13 11 7 6 12 16 13 10 4 1 5 4 4 5 1 1 3 5 3 3 4 0 1 4 3 2 2 3 1 4 8 7 6 6 5 6 2 4 7 8 9 7 6 6 2 7 13 7 1 2 1 4 4 5 6 6 5 2 1 4 5 4 4 7 4 3 3 4 8 10 12 12 12 11 10 10 8 7 6
28 27 26 26 24 23 19 13 10 11 16 13 7 11 16 13 9 2 0 5 2 4 2 2 4 3 4 5 2 2 2 2 1 1 2 2 2 1 3 4 5 7 4 3 5 1 1 3 4 7 7 6 3 4 3 10 5 3 5 5 6 4 4 3 4 3 2 3 8 8 9 6 6 5 5 3 4 9 8 10 12 12 12 11 10 10 8 7
30 29 27 27 28 26 23 20 17 13 11 12 10 11 16 10 5 3 3 5 2 3 2 2 3 2 8 10 3 1 2 2 2 3 2 2 2 3 0 1 3 5 2 2 3 1 2 0 1 2 3 2 5 5 3 0 2 7 7 6 7 5 4 2 1 2 2 6 7 8 12 9 6 4 8 5 3 4 4 7 10 12 12 12 11 10 9 8
32 32 30 30 31 29 20 15 21 19 9 8 10 14 12 3 0 5 6 3 1 2 3 3 2 5 12 11 5 4 3 2 3 6 5 3 3 3 3 3 3 3 2 4 3 1 1 2 2 1 1 3 6 5 4 3 2 4 4 5 4 2 2 2 2 3 5 5 2 1 5 9 8 4 5 4 2 2 3 7 13 15 14 13 11 10 10 9
34 33 31 31 32 30 21 13 19 20 11 9 15 13 6 2 2 8 6 1 1 4 5 4 4 8 11 6 2 5 4 3 5 6 5 5 6 7 8 7 6 4 4 7 5 1 2 4 2 2 0 3 6 6 4 2 2 3 4 7 6 3 3 4 3 4 6 4 2 2 2 5 8 7 7 4 3 3 2 2 9 15 15 14 13 11 10 8
36 35 34 33 33 33 28 19 18 20 16 14 14 5 2 5 9 12 9 4 2 2 3 4 4 6 8 5 2 4 2 2 6 4 2 3 5 8 6 4 4 2 2 6 6 3 3 2 3 4 2 4 9 8 5 4 5 7 8 8 7 5 4 5 4 3 4 1 2 1 3 3 5 6 9 5 2 3 3 3 1 10 15 14 13 11 9 9
36 38 39 38 38 37 33 26 22 24 22 15 8 4 6 9 11 11 12 8 2 3 3 4 7 7 7 4 2 5 2 1 7 5 3 5 5 7 8 7 7 2 2 4 5 5 6 3 6 9 4 7 13 8 3 7 8 7 4 3 5 5 4 4 4 3 2 2 2 1 3 4 3 1 2 2 3 3 2 2 1 5 10 11 11 11 10 9
37 41 42 39 38 38 35 29 26 29 25 13 5 7 10 12 10 8 10 8 4 3 3 4 8 7 6 2 1 5 3 2 7 5 5 7 6 8 8 9 10 6 4 5 3 4 6 5 3 4 1 9 12 4 3 7 6 3 1 1 4 4 2 1 1 0 2 1 2 3 3 3 2 2 2 1 1 2 2 2 2 6 9 9 10 10 10 9
41 42 40 38 37 37 37 32 31 33 24 10 5 9 12 12 7 5 6 7 5 7 8 4 4 5 6 3 4 7 2 1 7 6 4 5 5 6 5 6 12 11 8 7 3 3 4 2 2 3 1 5 5 1 2 2 3 4 3 5 3 2 1 1 0 2 1 5 3 5 5 3 1 2 3 3 2 4 3 3 5 7 10 11 10 10 10 10
43 38 32 34 37 39 39 35 34 32 19 7 8 10 11 10 5 4 5 6 6 10 10 5 5 7 7 5 6 9 5 3 7 6 4 4 4 7 7 4 9 14 13 7 2 3 4 1 1 2 2 1 2 1 3 3 1 5 5 6 3 1 1 1 3 1 2 6 3 4 8 6 5 3 2 4 4 6 6 6 6 7 10 12 11 11 11 10
37 30 23 32 42 43 42 40 38 27 10 5 12 14 12 9 6 5 4 4 7 10 9 8 7 7 8 8 6 11 11 6 8 7 5 5 4 8 13 7 7 16 16 7 0 2 4 3 1 1 1 2 1 2 3 1 1 1 2 3 2 3 4 3 4 3 4 6 4 4 6 6 8 6 4 6 8 10 10 9 9 11 12 12 12 13 12 11
27 15 12 29 46 46 46 45 34 15 4 7 13 14 13 10 6 5 4 5 6 10 11 10 7 6 7 7 6 10 12 9 10 8 6 6 4 7 14 9 7 14 16 10 3 1 3 4 3 1 1 2 2 5 8 6 2 1 1 3 1 3 3 3 3 2 3 5 3 2 3 4 8 7 10 12 11 12 13 10 10 13 14 13 13 13 14 13
19 5 5 27 47 49 51 44 21 6 6 10 13 12 10 9 6 4 5 7 6 5 9 11 9 7 6 6 5 7 9 8 9 8 6 8 6 5 11 10 6 8 11 10 4 1 2 4 3 2 1 3 6 7 8 9 8 6 6 8 5 2 0 2 2 1 2 4 3 4 5 3 4 4 9 12 9 10 13 12 11 12 13 14 13 14 14 13
11 6 4 28 50 51 45 27 9 6 9 11 14 14 8 5 7 7 4 6 6 3 3 7 10 9 6 7 5 4 6 7 8 7 5 8 8 4 8 11 8 9 8 6 5 5 4 3 3 4 4 6 4 1 2 3 5 6 8 10 11 7 5 4 5 3 1 3 3 2 5 3 3 1 3 3 2 5 10 11 10 11 13 13 12 14 14 13
5 6 7 34 57 50 31 12 7 9 9 11 15 12 4 3 6 9 5 4 5 2 1 4 7 8 7 8 6 6 7 6 8 8 5 8 11 7 5 7 9 13 11 5 5 4 3 2 3 3 3 4 2 3 2 4 3 3 4 5 7 7 8 7 7 4 3 3 1 0 4 3 2 1 0 1 2 1 3 6 7 7 9 10 10 11 12 11
3 2 7 38 62 46 18 10 11 10 9 13 14 10 5 4 5 7 8 9 7 4 4 5 5 7 7 5 5 8 10 7 9 12 7 6 9 5 4 8 11 12 8 3 3 4 3 2 4 2 0 1 0 0 1 2 1 4 6 4 5 7 7 5 3 3 5 5 4 2 5 3 2 1 1 1 1 1 1 4 5 5 5 7 9 10 10 9
2 1 1 28 56 43 15 9 13 11 12 13 11 11 10 7 7 8 9 11 8 6 9 9 5 6 4 3 5 9 13 9 9 13 9 5 5 1 4 10 14 12 7 2 4 8 5 4 6 4 2 3 3 4 4 4 5 6 4 5 7 8 5 2 2 2 5 7 9 6 7 3 3 2 2 1 1 1 2 3 5 5 5 7 8 9 10 9
2 2 3 11 30 26 11 10 14 13 14 14 13 16 14 8 8 12 11 10 7 5 8 7 5 6 4 4 5 8 12 10 6 8 7 3 3 1 1 9 12 10 5 1 4 8 5 3 7 9 8 9 7 6 6 5 4 3 2 6 10 12 11 6 4 5 6 6 11 10 7 2 2 1 2 3 1 2 4 4 4 5 5 6 7 9 10 10
2 2 1 3 7 7 3 4 10 12 14 15 12 14 17 13 8 8 11 11 9 8 6 2 3 6 5 7 8 7 11 10 2 3 7 5 3 1 1 5 6 6 6 6 7 8 3 2 9 12 12 9 4 2 3 7 7 9 9 11 13 15 15 9 5 7 5 5 8 12 8 4 4 5 5 5 4 4 4 4 4 6 6 6 7 8 8 9
2 3 4 3 3 5 3 2 7 12 14 16 10 9 17 19 10 5 8 11 10 11 8 2 4 8 8 11 11 8 9 8 3 4 6 4 2 1 1 2 1 4 7 7 6 6 3 6 12 14 15 8 1 2 2 9 14 16 15 14 14 14 15 14 13 9 7 5 9 9 9 9 9 10 9 8 7 5 4 5 6 6 6 6 7 8 9 9
3 2 3 2 1 5 8 6 8 12 14 14 9 7 14 18 14 10 9 9 8 10 8 4 8 15 15 13 11 8 8 8 8 8 6 4 4 3 2 1 1 3 5 4 4 4 3 8 10 10 15 10 1 1 4 7 11 12 15 18 16 15 17 18 18 11 10 10 11 6 12 14 10 12 10 8 8 8 6 6 5 5 6 7 8 9 10 12
2 1 1 1 1 3 7 5 7 11 14 13 9 9 13 18 20 15 7 5 6 10 12 12 14 17 17 14 12 10 10 10 10 10 8 6 6 5 4 3 2 2 3 4 4 3 3 6 6 6 11 13 6 3 3 4 5 5 12 17 17 18 19 18 18 14 13 17 12 6 10 13 6 10 9 5 5 5 4 4 4 6 8 9 10 10 11 13
2 1 1 1 0 1 0 2 5 9 11 11 10 11 13 17 20 16 8 6 9 10 12 17 20 16 14 14 13 12 13 13 12 11 10 9 7 6 5 5 4 3 4 5 4 3 4 6 5 5 7 10 7 5 2 3 3 2 8 13 11 13 14 14 15 13 12 15 10 4 7 9 4 7 5 3 3 3 4 5 6 7 8 9 10 10 11 12
1 1 1 3 3 2 1 2 4 7 8 9 10 10 12 17 19 14 6 4 7 8 11 18 21 13 10 14 17 16 13 9 7 6 9 10 8 6 5 5 7 8 7 6 5 5 6 4 4 4 8 7 5 6 5 1 2 5 13 13 10 10 10 11 11 9 10 13 9 6 9 7 4 6 4 4 5 7 7 8 6 6 7 9 10 10 11 11
1 2 1 2 2 3 2 2 4 5 5 6 8 8 9 13 14 12 6 2 1 2 5 13 15 10 8 14 16 10 5 7 5 3 4 4 3 3 2 4 9 10 10 7 4 4 7 5 4 6 8 4 2 6 7 4 1 7 14 12 14 14 12 10 8 9 11 12 9 9 11 5 4 6 6 6 7 9 8 7 6 6 7 9 9 9 9 10
Wind_Direction
70 58 47 39 349 278 268 268 257 242 240 238 242 249 241 230 227 225 235 243 254 278 312 358 358 359 2 2 358 355 347 340 348 17 24 332 157 150 134 123 140 138 133 118 120 141 114 77 47 53 103 74 4 336 69 39 357 264 226 179 148 161 165 170 165 162 98 115 141 123 323 299 317 111 108 216 186 289 292 107 89 78 77 78 60 18 3 9
98 75 59 64 252 262 260 254 243 236 230 216 227 233 212 213 218 223 222 232 256 270 7 10 5 2 3 1 358 351 342 334 13 47 32 56 144 146 127 121 139 137 136 132 139 168 148 92 56 43 82 94 356 337 201 1 330 303 155 282 138 132 95 142 142 142 132 101 126 142 239 278 314 0 354 270 159 322 287 126 132 117 93 73 43 24 19 22
130 90 70 31 309 280 267 262 253 245 239 218 219 217 198 203 212 221 223 232 261 299 358 11 5 2 4 1 355 347 337 318 147 31 26 83 125 131 121 124 138 139 137 152 143 134 124 105 87 37 31 69 37 348 318 11 333 269 232 294 112 121 80 165 179 149 105 80 130 149 167 251 300 332 309 308 308 237 121 86 155 136 58 38 27 18 15 23
185 300 354 349 337 312 290 273 263 252 242 223 211 208 203 209 217 222 228 238 270 310 351 6 358 359 4 359 351 346 328 280 156 12 45 96 114 118 114 121 138 139 125 154 136 112 113 98 70 42 15 98 56 320 18 16 341 166 290 42 100 149 156 156 204 163 113 205 243 139 180 227 106 296 278 298 297 191 113 45 8 12 29 21 20 14 12 23
217 247 296 320 321 316 300 279 271 255 237 217 206 203 212 235 241 235 245 259 292 321 350 351 350 351 354 357 351 341 317 278 135 187 133 114 125 117 114 128 146 136 125 164 133 110 111 91 73 56 37 101 60 220 70 18 342 154 49 43 98 177 164 127 161 148 142 181 189 192 219 187 118 239 236 253 283 12 69 28 30 39 44 28 18 15 20 28
224 241 261 287 295 294 285 278 271 251 234 214 203 203 213 232 244 260 274 276 303 322 334 335 341 340 340 353 343 330 306 298 151 195 161 140 161 132 132 144 155 136 138 169 140 126 104 77 150 124 71 93 16 35 74 25 313 279 105 90 153 203 252 121 148 161 163 186 202 216 212 124 208 241 202 235 301 48 45 30 53 58 53 40 33 29 32 33
225 239 256 270 276 279 273 266 258 241 229 219 210 211 213 221 240 257 274 279 302 314 321 328 331 334 335 322 348 27 293 285 205 197 181 174 187 168 154 154 165 151 149 164 154 152 125 167 185 151 134 111 115 103 81 3 265 289 115 145 182 209 256 164 147 166 185 219 214 128 157 208 228 238 136 131 75 75 73 62 67 68 61 52 48 38 35 36
227 242 263 270 271 274 268 256 248 233 224 226 221 215 216 220 242 252 260 273 294 304 310 321 334 19 98 189 235 344 255 228 200 201 205 212 208 195 172 167 180 169 173 184 179 169 163 194 155 181 193 84 179 145 108 254 181 270 47 124 146 203 246 240 224 215 214 238 190 157 221 229 223 175 122 117 115 107 99 82 71 73 65 55 48 39 34 32
227 242 259 271 269 268 268 253 237 232 224 224 222 220 225 223 239 254 261 275 289 302 315 316 330 123 173 151 122 298 256 151 178 204 211 215 210 199 180 178 191 193 190 180 176 173 182 197 156 198 149 92 185 139 123 262 162 47 20 134 215 232 254 244 245 239 226 227 167 198 233 193 154 155 125 118 134 131 118 90 65 66 59 49 41 35 32 30
226 237 251 269 267 259 263 249 231 235 229 220 221 226 232 229 241 257 264 280 287 298 305 294 289 166 195 162 189 284 201 136 159 172 185 196 195 189 186 185 190 200 188 163 170 166 186 190 148 172 108 100 163 118 317 283 20 33 327 275 257 265 270 228 240 249 229 212 188 220 229 119 135 217 163 129 148 150 126 89 59 62 59 48 42 34 29 31
226 232 243 262 267 261 257 245 233 234 229 221 224 232 236 234 242 256 264 278 289 285 287 303 195 186 177 184 236 262 168 161 170 147 156 178 183 181 186 188 185 198 185 165 180 173 176 157 141 144 139 136 147 127 309 328 51 6 315 282 256 258 251 217 244 267 227 208 198 212 184 126 163 213 73 112 156 172 129 92 67 66 67 59 56 44 33 31
227 228 240 250 260 264 255 244 234 233 228 218 231 241 238 235 239 257 267 275 279 270 263 178 186 181 160 228 243 228 174 172 165 149 156 163 171 172 176 184 182 195 195 181 182 176 157 154 150 122 71 162 158 136 142 133 341 351 323 301 289 276 247 82 36 270 262 167 176 200 188 169 172 146 72 98 152 164 135 102 83 78 77 68 57 50 43 31
228 221 234 246 254 256 253 247 235 233 226 218 243 246 230 236 240 255 270 281 272 260 248 201 189 173 194 265 214 205 199 183 165 154 160 155 156 165 170 179 179 182 195 190 175 167 156 160 153 94 93 171 147 114 134 129 290 243 306 315 305 289 231 77 14 277 257 136 160 225 237 182 149 117 77 96 160 176 161 114 100 87 72 61 53 51 53 37
232 223 235 245 248 253 254 247 236 233 224 223 245 235 221 230 227 251 274 287 277 242 215 183 178 166 205 265 179 206 209 198 196 181 173 170 156 148 153 161 169 169 168 168 162 153 150 148 128 106 93 356 113 139 144 131 286 282 267 239 290 290 168 101 47 306 262 139 168 229 260 193 142 130 71 51 202 216 209 120 98 80 69 56 60 57 59 51
232 227 242 248 245 254 255 241 236 228 215 229 244 224 204 206 218 270 252 249 187 166 154 159 169 158 239 259 223 216 206 199 202 195 192 182 163 140 139 141 137 136 131 135 139 133 135 137 126 116 96 24 150 164 179 179 120 1 273 233 175 254 244 102 78 349 334 120 169 221 259 286 152 141 71 35 210 209 203 133 93 76 73 57 71 68 71 71
233 219 232 248 250 256 256 246 237 214 204 234 234 202 182 183 186 171 164 157 148 141 138 158 159 157 268 244 175 201 200 198 196 197 190 178 174 150 135 127 114 113 114 113 116 116 112 112 96 46 107 160 177 180 220 245 223 164 254 258 223 226 271 1 108 51 0 119 170 219 260 316 149 138 82 57 173 184 178 138 115 96 80 73 80 75 88 86
237 227 225 235 246 260 266 256 224 195 197 226 216 178 172 160 155 157 140 137 135 116 128 151 134 148 252 187 193 214 177 185 183 182 180 173 175 154 136 118 101 107 109 106 112 111 72 62 96 248 115 159 181 177 223 246 239 195 205 257 257 229 254 280 148 98 3 247 216 211 248 256 141 133 104 81 147 179 165 150 145 135 113 111 100 90 95 84
232 237 226 221 236 262 276 248 193 186 189 218 210 173 156 148 154 159 159 143 116 95 111 141 133 220 234 172 182 160 121 151 160 161 168 162 160 153 137 118 121 125 118 111 118 119 25 42 218 217 151 175 182 183 214 240 252 199 190 236 252 229 235 251 242 85 26 257 253 237 249 245 168 154 158 118 166 193 162 154 158 156 161 147 142 131 103 88
225 234 225 219 229 250 272 225 185 184 166 203 191 146 122 113 142 168 172 159 148 180 202 172 178 234 242 154 126 109 113 133 144 150 151 146 151 146 121 119 128 134 143 164 180 150 168 146 173 220 200 195 191 200 218 233 39 150 180 241 256 254 248 234 229 29 18 273 259 253 261 259 208 183 176 143 159 182 159 159 171 172 174 162 160 156 134 115
217 222 212 211 220 240 267 223 188 178 175 211 169 138 128 148 190 206 184 203 224 234 354 179 190 204 52 129 131 129 122 122 130 154 154 150 148 132 102 109 116 142 173 183 160 142 226 195 207 225 209 196 198 204 213 75 77 123 159 238 250 260 267 208 128 70 34 271 259 253 265 271 253 192 159 148 159 180 180 184 190 183 180 177 169 159 147 130
211 213 207 204 214 237 265 236 190 174 184 215 181 165 221 201 205 229 183 224 233 237 259 207 207 265 190 132 152 150 131 117 106 153 162 159 154 155 155 157 167 179 188 124 110 119 215 218 226 227 177 178 200 194 160 129 146 187 222 241 249 249 260 243 129 100 95 251 260 256 262 268 262 177 135 159 184 196 201 198 201 187 181 181 168 160 150 135
210 209 205 204 220 237 253 243 190 173 188 215 202 225 282 268 199 53 147 257 239 227 231 209 231 253 199 139 168 163 146 159 150 169 172 163 171 193 168 167 194 186 140 133 138 156 206 230 232 168 103 112 140 170 189 207 208 211 224 244 256 246 262 262 144 119 184 230 259 289 274 268 262 149 135 178 192 196 214 220 225 193 189 184 164 155 151 151
211 207 204 207 221 231 237 223 187 177 203 212 207 220 260 249 131 76 281 276 277 213 203 192 212 216 188 180 182 173 189 193 177 184 176 167 176 196 163 181 200 156 150 184 190 191 203 241 232 130 131 145 131 168 186 199 219 217 213 232 244 214 229 251 159 112 187 230 298 329 293 272 260 176 149 170 183 174 178 210 235 216 213 181 153 160 161 163
209 206 205 211 221 225 222 198 186 200 217 222 227 219 197 119 150 111 305 269 270 215 198 202 210 209 191 179 176 180 201 204 183 180 175 173 159 148 181 186 174 158 190 201 204 215 210 341 126 145 159 171 154 162 180 197 220 215 215 229 241 221 223 243 90 92 210 205 237 284 286 274 253 227 194 151 165 180 169 184 198 200 208 179 165 193 187 177
204 204 202 212 223 219 195 177 193 213 215 224 237 221 198 167 147 131 303 280 255 220 217 205 197 209 187 155 165 173 184 204 206 168 174 179 158 142 175 163 178 203 197 187 206 235 230 101 129 150 164 179 171 178 191 202 222 224 218 223 238 241 232 228 133 218 257 232 188 233 266 264 200 234 224 149 169 186 172 193 202 193 190 196 195 189 187 186
200 202 201 213 221 201 177 182 204 210 209 230 240 215 197 200 151 136 194 292 258 196 141 186 184 184 168 150 157 142 110 218 179 116 168 184 169 144 169 145 193 228 173 152 208 251 222 127 138 151 163 174 187 212 194 189 224 245 219 213 227 238 233 211 183 201 256 266 90 224 255 257 250 247 196 150 196 194 185 208 207 200 196 197 197 187 183 179
201 203 206 217 214 186 172 183 193 191 199 241 241 206 200 202 177 176 233 278 262 169 132 193 197 168 158 156 162 145 176 201 103 109 162 179 173 136 206 176 161 202 144 141 222 232 147 152 159 159 161 172 200 223 180 179 217 237 83 188 203 207 210 205 196 207 247 324 114 202 233 267 271 262 129 144 214 214 206 209 206 206 201 194 193 186 181 176
206 206 212 218 209 189 185 176 170 188 206 229 232 202 200 196 187 192 237 253 270 104 116 166 87 109 122 138 156 135 318 69 123 163 73 96 166 131 224 198 172 163 156 183 217 221 138 174 187 174 176 197 207 216 161 178 212 287 73 120 156 176 191 185 195 217 245 308 243 202 167 250 257 224 137 146 231 244 221 202 199 201 197 191 189 183 176 170
213 212 215 217 208 199 203 199 184 208 224 230 248 208 187 182 189 168 353 238 229 87 87 122 124 77 100 140 138 78 72 26 76 153 81 110 123 51 225 204 148 146 149 228 229 341 65 204 206 181 193 204 166 39 152 187 201 132 123 100 91 85 92 135 201 202 160 233 247 209 174 224 264 207 184 177 232 246 222 190 192 192 189 188 183 178 173 168
218 217 220 216 203 196 199 205 211 223 233 241 244 192 167 169 185 162 206 233 184 91 67 127 150 142 143 151 165 138 115 37 74 112 106 135 83 32 319 93 98 138 140 286 265 21 76 38 296 207 208 164 104 58 28 65 130 142 139 108 95 89 90 104 171 164 210 235 241 213 186 211 261 212 201 207 215 225 173 166 181 180 182 185 180 175 173 173
222 219 218 210 199 192 187 197 212 216 234 239 194 161 157 160 122 185 205 252 12 135 140 141 142 156 162 161 168 171 139 74 148 153 147 153 140 125 154 154 129 140 188 241 231 164 134 179 195 179 110 111 111 86 48 42 122 162 155 140 131 119 143 172 146 174 241 235 201 178 182 213 239 218 204 205 142 147 161 172 180 178 179 181 177 174 173 179
223 219 214 207 202 198 196 197 203 206 223 201 165 154 159 147 211 221 211 84 152 189 158 145 171 180 177 167 125 146 142 138 168 170 158 162 176 176 187 188 164 167 220 216 200 153 198 202 161 107 194 182 148 113 79 74 207 214 167 164 184 187 181 214 197 196 242 233 103 67 154 218 241 241 252 251 149 162 172 161 180 177 176 177 174 172 173 178
223 218 212 210 208 204 204 204 196 200 207 184 164 168 172 175 214 222 208 185 184 167 105 109 139 164 165 155 137 145 115 127 166 175 155 159 188 197 214 227 186 201 235 188 185 182 203 205 154 168 204 204 184 169 162 174 190 196 181 180 194 187 196 220 203 225 258 222 80 94 176 223 252 247 259 266 90 90 79 42 209 177 173 173 168 169 173 175
222 217 210 210 211 206 204 200 194 199 196 175 169 192 178 203 222 208 201 206 189 63 68 111 117 131 163 169 165 163 147 174 167 162 160 168 192 205 213 224 216 232 60 155 190 193 215 247 178 177 164 171 191 202 162 143 166 193 190 196 209 200 213 224 209 233 263 113 107 134 188 207 204 163 297 330 49 53 74 51 17 166 164 159 157 165 173 178
218 214 208 205 204 202 198 193 194 198 188 166 183 192 186 216 222 201 199 190 158 91 77 111 122 140 184 192 169 187 202 215 167 158 178 181 195 203 198 202 199 188 157 181 197 181 222 266 160 149 107 167 183 203 86 121 158 189 78 224 235 234 214 237 304 4 47 39 181 187 227 233 199 124 93 70 87 113 108 93 135 162 154 149 161 174 180 183
208 207 205 200 197 195 192 191 193 190 179 163 199 198 204 221 210 182 185 165 156 141 123 124 140 161 193 180 186 202 223 139 161 173 202 198 229 213 190 196 190 190 191 184 178 171 207 278 99 82 6 172 178 150 117 150 169 150 173 200 212 318 50 138 237 70 55 271 227 176 224 248 222 219 131 118 156 154 149 154 163 166 160 164 178 183 185 187
196 197 199 199 197 191 188 191 190 183 173 177 208 208 219 225 194 164 172 147 138 140 141 184 190 176 188 185 191 190 177 144 167 188 189 177 233 200 186 220 190 194 211 205 209 208 197 235 124 138 175 132 348 54 95 0 90 141 187 191 139 4 313 212 244 173 179 253 253 181 218 213 188 212 130 138 181 186 188 176 165 171 174 181 189 188 188 185
191 191 197 202 198 189 186 188 185 178 170 195 211 220 229 227 200 184 169 117 132 154 178 214 195 179 187 186 183 176 177 175 168 184 185 182 227 179 173 201 192 196 210 206 262 234 205 225 157 112 179 107 30 205 145 46 307 157 203 169 124 219 207 175 225 234 202 240 261 196 214 220 204 196 165 183 198 195 190 177 174 185 186 190 193 190 188 181
195 194 211 203 194 187 183 184 180 175 185 200 207 220 224 221 206 178 162 150 150 171 197 212 199 197 197 180 158 164 183 184 161 175 197 188 209 176 173 189 195 199 199 181 177 185 180 231 209 90 5 115 144 209 191 178 181 1 197 174 220 262 214 175 196 224 217 236 260 221 206 211 209 191 176 191 199 187 180 178 188 193 192 194 192 187 187 187
191 206 235 190 187 182 177 177 177 182 203 201 209 216 211 209 203 185 184 188 184 188 206 212 204 205 199 177 155 161 188 195 171 183 206 183 186 191 186 189 182 187 186 178 201 174 138 233 219 113 54 176 183 209 205 183 171 173 183 182 187 193 268 255 228 179 229 240 243 254 257 208 182 187 185 191 194 180 175 179 190 195 196 196 192 188 187 188
179 218 202 173 178 175 169 170 184 199 199 206 216 221 213 192 194 198 203 211 222 240 224 218 214 210 189 175 179 155 172 195 188 196 213 193 200 214 192 191 169 142 146 166 218 209 174 199 190 152 181 202 208 288 297 228 193 189 191 187 186 176 157 208 223 185 198 250 224 251 274 231 143 160 203 186 170 169 175 178 183 193 196 194 193 193 191 188
186 225 168 166 172 169 162 173 198 192 205 212 214 222 204 137 191 194 179 194 224 231 227 233 223 215 195 183 187 166 165 187 193 201 223 208 211 217 189 182 159 146 145 160 201 189 136 140 169 164 200 217 284 6 337 298 301 288 248 206 192 185 175 198 221 180 159 222 149 18 280 271 116 113 116 58 21 46 175 188 189 194 193 190 192 191 192 192
223 227 150 166 169 165 164 193 188 193 220 215 216 228 207 188 200 189 183 194 199 190 203 222 216 216 214 185 171 177 184 195 193 197 213 217 213 209 157 153 147 151 158 151 160 143 101 171 183 174 223 192 354 239 228 323 302 251 246 212 202 211 195 203 221 152 181 196 150 185 249 238 130 134 96 70 22 10 252 214 208 203 187 188 193 188 187 186
194 104 105 174 172 168 172 192 184 200 217 210 217 224 222 226 209 194 197 199 194 190 207 217 211 210 210 160 168 189 191 198 205 202 203 207 203 131 127 161 158 161 181 187 165 167 169 182 173 171 194 192 198 207 214 212 200 223 229 180 202 212 176 140 102 137 230 200 163 201 246 200 140 151 141 146 190 224 226 213 213 214 196 189 191 189 187 180
147 119 346 196 181 176 185 192 184 196 206 206 214 215 218 231 215 209 208 200 196 193 203 217 203 187 180 167 189 199 197 202 209 202 201 199 186 79 133 183 175 172 183 99 130 160 174 186 178 187 201 200 204 212 208 188 173 213 197 169 201 201 178 170 169 197 229 178 164 206 236 158 117 187 196 175 156 233 217 193 206 220 210 195 189 187 185 181
155 190 183 220 212 208 237 202 185 190 196 201 212 215 215 220 217 209 207 206 204 195 198 205 159 174 180 183 193 203 209 219 218 177 201 196 173 100 165 190 187 169 143 117 136 152 149 223 205 214 222 213 214 248 148 126 155 204 198 181 196 200 190 188 202 213 199 147 194 220 218 205 198 193 204 186 173 222 216 178 201 220 211 197 188 187 187 187
189 215 178 176 237 227 256 276 195 194 195 194 198 203 210 217 218 193 203 212 203 195 206 203 162 191 194 188 200 206 201 209 208 189 202 184 127 51 110 152 163 149 135 132 160 152 137 220 215 223 240 240 29 332 198 161 186 208 204 195 198 196 189 194 212 209 146 155 236 213 185 217 207 178 196 193 178 212 221 195 210 212 198 188 178 182 189 194
201 208 197 204 270 213 222 222 199 202 197 189 196 208 208 214 217 205 204 212 203 195 204 211 203 209 206 194 200 205 188 196 209 205 193 165 146 137 126 127 187 170 139 140 193 158 157 227 216 212 239 247 96 322 249 199 202 210 205 204 200 191 189 199 214 204 154 200 240 162 169 216 203 171 193 193 179 201 206 197 197 179 175 175 172 180 190 196
181 143 237 264 340 214 218 198 181 205 201 185 196 217 210 213 218 216 196 180 205 202 199 214 218 211 208 204 201 200 191 194 209 209 186 169 172 163 159 175 181 181 147 152 195 182 176 223 207 188 233 241 216 201 224 205 216 218 210 210 205 198 196 201 213 208 196 224 237 151 187 228 192 159 186 188 178 188 169 158 164 166 172 171 174 187 196 200
169 194 166 144 172 224 222 121 163 206 207 190 198 211 209 214 219 216 195 180 209 208 200 218 224 210 203 208 209 212 209 205 214 211 179 171 184 184 190 190 151 150 179 171 179 203 208 209 170 154 226 235 209 184 171 197 214 228 230 223 203 193 196 204 216 211 210 233 234 161 221 244 169 142 163 151 145 146 159 178 178 176 172 167 178 195 201 204
118 308 150 143 184 198 154 129 173 207 210 198 204 206 206 217 218 212 203 208 218 211 203 217 225 218 205 213 219 226 223 208 214 209 176 179 192 188 195 185 150 154 179 182 171 181 202 203 117 153 219 227 193 186 191 150 36 277 254 231 178 165 185 203 215 206 202 222 225 222 245 243 162 145 141 137 159 177 189 187 177 179 173 171 188 200 205 209
127 330 357 129 175 205 191 174 185 206 215 205 208 207 209 223 219 204 204 240 233 239 230 219 218 214 207 214 219 218 171 122 116 110 125 136 120 100 122 159 157 162 171 175 171 170 182 185 151 179 210 223 175 184 178 130 98 256 251 220 180 185 196 196 207 211 206 209 211 225 239 228 143 149 156 165 186 198 198 183 175 184 181 186 200 202 205 210
Height
830 831 831 831 831 831 831 831 831 831 831 831 832 832 832 832 832 832 833 833 833 833 833 833 832 832 832 831 830 829 829 828 827 826 826 826 826 826 827 827 827 827 828 828 828 828 828 828 828 828 828 829 832 833 834 835 835 834 836 839 841 845 845 843 843 844 843 844 847 848 848 847 845 843 844 844 844 843 840 842 846 847 848 851 853 852 851 849
831 831 831 831 831 831 831 831 831 831 831 831 831 832 832 832 832 832 832 833 833 833 833 832 832 832 831 831 830 829 828 827 827 826 826 826 826 826 827 827 828 828 828 828 828 829 828 829 829 828 828 831 834 834 834 836 835 837 839 839 841 843 842 841 840 842 843 844 846 849 851 849 845 844 844 844 844 843 841 841 844 846 848 850 852 852 851 849
830 831 831 831 831 831 831 831 830 831 831 831 831 831 832 831 832 832 832 833 832 832 832 832 832 831 831 831 830 829 828 827 827 828 827 826 826 827 827 827 828 828 828 829 829 829 829 829 829 829 830 832 835 835 835 836 836 839 840 838 841 842 842 843 842 843 844 845 846 848 852 850 846 846 844 843 844 842 842 843 843 844 848 851 852 853 851 850
829 830 830 830 830 830 830 830 830 830 830 830 831 831 832 831 832 831 831 832 832 832 832 832 832 831 832 830 830 830 827 828 829 829 828 827 827 827 827 828 828 828 829 829 829 829 829 830 829 830 831 834 837 836 836 838 838 840 839 838 841 844 843 843 843 844 846 847 846 848 851 849 846 847 845 844 843 841 843 848 849 849 852 854 853 854 853 851
828 829 829 829 829 829 829 829 829 830 830 830 831 831 831 831 831 831 831 831 831 832 831 831 831 831 831 830 831 829 828 833 832 828 828 828 828 828 828 828 828 829 829 829 829 830 830 830 830 831 833 835 837 837 839 841 840 840 841 841 843 845 843 842 845 847 848 849 848 849 848 847 847 847 845 844 843 844 849 853 855 855 856 856 855 855 853 852
828 828 828 829 829 829 829 829 829 829 830 830 830 831 831 831 831 831 831 831 831 831 831 831 831 831 830 830 830 828 831 836 831 827 829 828 828 828 828 829 829 829 830 830 830 830 830 830 831 834 835 837 839 839 840 843 842 839 843 846 845 845 843 842 845 848 849 848 847 847 846 846 847 845 845 846 848 852 857 858 857 858 858 857 856 855 854 853
827 827 828 828 828 828 828 829 829 829 829 829 830 830 830 830 830 830 831 831 831 830 830 830 830 830 830 830 830 829 831 832 827 827 828 827 828 828 828 829 829 829 830 830 831 830 831 832 833 836 836 839 841 841 843 843 842 839 841 846 847 847 845 842 845 848 848 846 845 847 847 846 845 844 846 850 855 859 859 859 859 859 858 857 856 856 855 855
826 827 827 827 827 827 828 828 828 828 828 829 829 829 829 830 830 830 830 830 830 830 830 830 830 830 830 830 829 830 831 828 826 827 827 827 828 828 828 829 829 830 830 830 831 830 832 833 834 837 837 840 840 841 845 843 841 841 841 845 848 849 845 843 846 847 847 846 846 848 847 844 843 844 846 853 858 859 860 860 860 859 858 857 857 857 856 856
826 826 826 826 826 827 827 827 827 827 828 828 828 828 829 829 829 829 829 829 829 829 829 829 829 829 829 829 829 832 830 826 826 827 827 827 827 828 828 829 829 830 830 830 831 830 832 834 835 835 836 840 841 841 845 842 840 842 843 844 846 846 843 844 844 843 845 845 845 846 843 842 845 845 848 855 858 859 860 860 860 859 858 858 858 858 857 857
825 825 826 825 825 826 826 826 827 827 827 827 828 828 828 829 829 829 829 829 829 829 829 829 829 829 829 828 830 833 828 825 827 826 826 827 827 828 828 829 829 830 830 831 830 831 831 832 833 833 835 839 841 844 845 843 843 844 844 844 843 843 843 844 842 842 844 844 844 842 840 843 848 845 846 854 858 858 859 859 860 859 859 860 859 859 859 858
825 825 825 825 825 825 825 825 826 826 826 827 827 828 828 828 828 828 828 828 828 828 828 828 828 829 828 828 830 831 826 825 826 826 826 827 827 828 828 829 829 830 830 830 830 831 831 831 832 833 835 837 840 845 846 844 845 846 845 842 841 840 841 841 841 843 843 843 844 841 841 845 847 845 846 853 858 858 858 859 860 860 861 861 861 860 860 859
824 824 825 824 824 824 824 824 825 825 826 826 827 827 828 828 828 828 828 828 828 828 828 828 828 828 828 828 828 826 825 826 826 826 826 826 827 827 828 829 829 830 830 830 831 830 831 831 831 833 836 837 840 845 846 846 847 847 846 842 838 835 837 840 841 844 842 842 844 841 841 843 843 846 851 855 857 857 857 858 860 861 862 861 861 860 860 860
823 824 824 823 823 823 823 824 824 825 825 826 827 827 827 827 827 827 827 827 827 827 827 827 828 828 829 828 825 824 824 825 825 826 826 826 827 827 828 829 829 830 830 830 830 831 832 831 831 834 837 837 841 845 844 846 848 846 846 846 841 836 836 840 842 842 840 842 844 843 839 836 841 848 852 856 857 856 856 857 860 860 861 861 860 860 860 861
822 822 823 823 823 823 823 823 824 824 825 826 826 826 826 826 827 826 826 827 827 827 827 827 828 828 829 826 823 824 824 825 825 825 826 826 827 828 828 829 829 830 830 830 831 831 832 832 833 834 838 839 841 844 844 846 847 845 847 847 847 843 837 838 843 841 838 841 843 842 838 832 839 849 852 856 856 855 854 855 859 859 860 861 861 861 860 861
821 822 823 822 822 823 822 823 823 824 824 825 825 825 826 826 826 826 826 826 826 827 826 827 827 827 829 826 823 824 824 824 825 825 826 826 827 828 829 829 830 830 830 831 831 832 833 833 834 836 841 843 842 844 845 845 845 847 848 846 848 848 838 836 843 843 839 840 839 840 838 833 837 846 852 856 856 854 853 855 858 859 861 861 861 861 861 861
819 821 822 822 822 822 822 822 822 823 824 825 825 825 825 825 825 826 826 826 826 826 826 827 827 827 829 826 823 823 824 824 824 825 825 826 827 828 829 830 830 831 831 832 832 833 833 834 839 842 843 843 842 843 845 847 847 848 849 845 846 848 842 838 842 845 843 841 838 837 838 834 836 844 852 856 855 852 852 855 858 859 861 861 861 861 861 861
818 819 820 821 822 822 822 822 822 823 824 824 824 824 825 825 825 825 825 826 826 826 826 826 826 827 826 824 823 822 822 823 823 824 825 826 827 827 829 830 831 832 832 833 834 834 834 837 844 844 842 843 842 842 849 853 846 847 851 848 846 848 846 841 839 843 844 841 838 837 837 834 836 845 851 855 856 852 852 855 858 859 860 861 861 861 861 861
816 818 819 820 821 822 822 822 822 823 823 824 824 824 825 825 825 825 825 825 826 827 827 826 827 830 826 821 821 821 821 822 823 824 825 826 827 828 829 830 831 832 833 834 835 835 837 840 843 842 844 847 843 843 850 847 838 841 848 847 845 847 847 844 840 841 843 840 837 838 837 832 836 846 851 855 857 853 852 856 857 859 860 861 861 861 861 861
815 816 817 819 821 822 821 821 822 822 823 824 824 824 824 825 825 825 825 826 825 824 825 823 822 826 823 818 819 820 821 822 823 825 826 826 828 829 829 830 831 832 834 837 836 837 838 840 845 844 843 843 840 837 838 835 834 838 842 842 843 843 842 843 842 843 845 842 836 836 833 829 832 841 848 853 856 854 854 857 857 858 859 859 860 860 861 861
813 815 816 818 819 821 821 821 822 822 823 824 824 824 824 824 825 824 824 824 819 816 816 815 815 817 817 816 819 820 821 823 823 824 826 826 827 829 830 831 833 834 836 837 837 840 841 842 842 837 832 833 833 831 832 836 839 842 844 845 845 843 840 839 843 846 848 844 836 833 833 829 828 835 845 852 854 854 854 855 856 857 858 858 859 860 860 860
811 814 815 816 818 819 819 820 821 822 823 823 823 823 821 820 821 821 820 819 814 812 813 812 813 814 814 815 817 818 819 822 824 824 825 826 827 829 830 832 834 836 838 839 840 842 843 842 834 826 826 829 830 832 837 841 843 844 846 846 845 844 840 838 843 848 849 847 838 836 839 832 825 833 846 852 852 851 851 853 854 855 858 858 859 859 859 860
809 811 813 815 816 817 818 819 820 821 823 823 823 822 819 817 818 817 817 816 812 810 812 813 814 814 814 815 816 816 817 820 824 824 824 826 827 828 829 833 833 834 840 841 840 843 846 838 827 825 830 833 836 839 840 842 845 846 847 848 847 843 841 840 846 851 850 847 840 840 844 832 823 835 848 851 849 851 853 854 855 856 857 858 858 859 859 860
807 809 812 813 814 816 817 818 820 821 822 821 821 820 818 817 817 817 818 818 813 809 810 812 812 811 812 814 814 815 816 816 819 821 823 824 826 828 828 831 832 835 841 837 834 841 842 833 826 828 832 835 841 844 843 845 846 846 846 848 845 843 845 841 845 853 852 850 846 845 845 830 821 833 845 851 851 853 858 858 858 858 857 857 858 859 859 859
805 807 810 811 813 815 815 818 819 820 820 820 819 817 817 817 817 818 818 817 814 808 807 806 807 806 807 809 809 812 814 813 813 816 819 820 823 827 826 826 832 836 836 830 829 832 830 830 832 832 831 832 840 846 845 844 844 844 845 844 839 840 844 840 844 851 849 851 851 848 845 828 819 824 832 847 855 854 857 858 857 858 858 858 859 859 859 859
803 806 807 809 812 813 815 817 816 818 818 819 817 815 817 817 817 819 818 819 815 807 806 804 804 803 800 804 807 808 811 811 810 812 814 816 819 823 825 826 830 831 829 831 834 830 826 832 835 835 835 834 837 842 842 840 840 842 842 839 836 835 839 842 848 850 846 847 848 849 845 827 818 821 825 840 850 850 855 856 853 855 856 857 857 858 860 860
801 803 805 807 809 811 815 814 813 816 817 817 814 814 817 816 818 818 818 826 818 803 804 802 799 798 797 803 806 807 813 812 809 811 813 815 815 817 823 827 829 828 828 833 837 832 830 835 835 835 838 838 839 839 838 839 840 841 839 837 837 837 840 845 848 849 846 844 848 853 847 830 819 815 822 837 843 845 851 853 850 852 853 854 855 856 858 860
798 800 803 805 807 809 812 810 811 814 815 814 811 814 817 815 819 817 819 835 817 790 795 800 797 795 795 801 802 804 812 809 809 814 813 815 815 815 819 823 828 830 831 835 836 831 831 837 838 836 837 840 839 835 836 838 838 839 842 842 840 839 843 846 846 847 844 843 851 853 848 842 829 818 826 839 838 839 845 847 847 848 849 851 853 855 856 858
795 798 800 802 805 806 807 808 810 811 812 811 810 814 815 815 820 815 824 839 808 778 788 797 796 794 796 803 801 803 810 806 808 814 814 815 816 816 818 818 821 825 829 830 829 828 829 834 835 834 837 837 832 830 833 835 835 841 848 849 844 843 844 844 845 845 845 848 849 845 847 849 832 818 829 839 833 829 830 835 841 842 845 848 850 853 856 857
792 795 796 800 802 804 805 807 809 809 809 809 811 813 813 817 818 816 835 834 792 776 789 792 795 799 800 804 804 806 810 808 810 813 815 817 815 817 820 819 819 823 829 827 823 826 832 835 833 830 831 830 830 837 838 833 834 844 852 849 847 849 848 848 847 844 850 855 846 836 841 844 827 811 818 831 827 815 813 823 832 836 842 845 847 851 854 857
789 791 794 797 799 801 803 804 806 808 809 810 811 813 814 818 817 826 846 819 775 781 795 791 797 802 801 805 808 809 809 812 814 815 817 817 816 818 820 821 822 824 830 830 827 830 835 839 837 832 830 829 836 847 849 843 842 846 846 843 846 849 848 849 846 844 852 851 838 831 832 836 831 812 802 809 811 803 806 819 827 832 839 842 845 850 853 856
785 787 791 793 794 797 798 801 803 806 810 809 810 814 815 819 822 830 829 791 770 788 795 794 802 801 799 800 803 808 810 814 815 813 816 818 818 820 820 821 823 827 832 831 829 832 835 836 834 833 836 835 837 845 852 853 851 845 838 837 844 846 848 849 849 852 853 841 835 840 839 837 835 814 795 795 802 804 806 812 819 826 834 838 842 847 851 854
781 784 787 789 791 794 795 797 801 806 810 809 811 813 814 825 828 818 799 776 776 786 785 792 801 799 798 796 799 807 809 812 813 811 813 815 817 816 814 813 815 825 831 826 827 831 831 829 829 833 838 835 831 838 849 853 850 843 836 838 843 845 850 850 847 850 845 835 841 849 845 841 828 806 793 792 800 808 809 811 815 820 828 834 839 845 848 852
777 780 784 785 787 789 791 795 800 806 808 808 812 811 814 826 817 795 784 776 777 781 781 789 796 797 798 797 802 808 807 810 813 813 814 814 815 813 810 810 810 813 816 818 825 829 827 826 829 831 832 830 823 825 836 842 843 839 832 833 836 842 851 850 845 846 838 835 846 849 843 838 819 800 796 798 807 816 819 822 821 819 824 830 836 842 847 850
774 776 778 780 782 785 788 792 797 802 805 809 813 811 815 815 792 776 779 774 774 784 786 789 795 799 798 797 803 804 805 810 812 813 816 816 816 814 810 811 811 810 812 818 822 823 822 818 818 820 820 820 818 813 816 824 833 833 826 826 828 828 833 834 831 829 828 834 848 852 840 822 806 804 810 815 822 827 826 829 828 823 825 830 835 841 845 849
769 772 774 776 777 780 784 789 794 799 804 807 810 809 807 796 775 768 771 768 774 786 789 790 794 798 798 799 804 801 799 806 810 813 814 812 810 807 803 805 809 809 811 815 816 818 819 808 806 816 816 814 815 812 813 818 828 834 831 830 829 818 817 830 838 835 834 836 841 844 829 804 797 807 820 826 826 827 829 831 831 827 827 832 836 840 843 846
764 767 769 770 771 774 778 785 791 795 799 804 806 801 788 771 761 761 760 760 769 780 788 793 792 794 797 798 803 802 798 801 809 812 811 811 808 803 800 797 801 805 801 802 808 813 816 811 813 821 819 818 819 816 816 817 820 831 835 830 826 820 817 832 848 853 849 834 821 822 817 804 800 803 815 825 821 822 829 830 830 829 829 832 835 837 841 844
757 760 762 761 763 768 774 781 788 792 796 799 797 786 771 758 754 755 753 755 762 768 778 785 782 784 790 792 795 800 798 799 806 806 806 810 803 795 800 796 793 797 791 790 797 799 802 807 816 821 818 823 829 822 820 820 818 825 828 820 820 826 822 822 830 839 844 831 814 812 810 802 800 800 808 817 815 816 823 826 830 831 830 831 832 834 838 841
749 753 753 751 756 762 769 777 783 788 792 792 788 776 764 757 752 751 752 754 758 763 769 771 770 771 777 782 785 792 794 794 801 803 800 803 792 780 790 793 788 790 786 787 795 794 794 800 814 825 821 824 831 823 819 823 822 821 819 814 816 822 820 822 825 826 829 826 814 813 812 802 794 792 795 801 802 806 813 822 828 827 827 828 827 831 835 838
747 749 744 740 748 756 763 773 779 784 786 784 781 769 756 752 752 750 751 753 755 759 760 759 761 766 769 771 775 785 790 787 793 796 790 791 786 774 777 780 780 784 784 788 794 793 794 796 806 824 827 823 826 820 814 817 824 825 820 816 816 814 811 815 818 813 814 816 810 811 813 801 784 778 779 782 786 792 803 815 820 819 820 821 821 825 830 833
742 745 735 730 742 750 757 768 775 777 775 770 766 755 746 748 752 750 749 748 750 753 752 750 755 761 765 768 769 775 783 782 784 787 780 779 779 774 773 771 774 782 784 788 792 792 797 796 799 820 831 822 815 810 802 801 810 816 814 813 816 815 815 814 812 809 809 808 807 809 802 786 776 775 771 770 775 782 792 803 809 811 813 815 817 819 823 827
735 737 729 726 737 745 753 763 767 765 763 760 753 745 744 746 747 750 750 748 748 748 748 748 748 752 759 766 766 768 777 780 780 780 775 773 770 767 768 766 768 779 787 794 795 790 794 796 799 816 824 812 803 805 806 801 799 800 798 798 799 804 811 813 810 812 814 807 804 808 798 777 775 782 776 773 776 781 788 795 799 804 807 810 814 816 818 823
732 730 724 724 731 740 748 754 755 756 755 749 741 739 743 744 744 748 750 750 750 750 751 750 747 748 752 756 759 763 769 775 778 776 770 767 762 758 761 763 765 772 779 787 787 784 789 794 798 809 812 807 806 813 819 815 805 801 798 793 790 791 795 797 798 806 816 813 808 812 805 783 781 792 790 787 790 791 793 794 795 799 804 808 813 815 818 822
729 727 725 724 726 733 743 746 749 752 747 738 736 738 741 742 744 747 747 748 749 749 751 750 747 748 749 750 755 759 761 765 770 768 764 763 759 757 761 764 766 770 772 777 782 785 789 789 794 804 806 805 808 812 818 818 811 804 798 795 792 787 784 786 790 795 801 804 805 811 805 784 784 798 798 797 802 802 800 799 797 800 804 809 813 815 818 821
727 728 729 728 726 728 733 737 743 747 741 737 740 741 739 739 741 744 744 744 745 746 747 746 745 745 745 749 752 752 753 756 759 758 758 760 760 762 765 764 764 766 768 770 771 776 782 781 786 799 804 804 807 808 809 811 808 797 790 792 792 787 788 793 796 797 793 788 791 798 791 776 782 796 798 799 802 800 801 803 801 802 804 808 812 815 817 820
727 730 731 730 727 724 722 721 728 738 739 738 740 739 738 739 736 736 740 741 742 743 742 742 741 741 744 749 749 749 747 746 750 755 757 758 761 766 769 765 761 761 764 767 764 766 776 777 776 783 789 788 787 784 781 786 795 794 790 792 791 788 790 790 791 795 792 785 784 782 776 776 785 790 789 793 797 793 795 801 804 804 805 807 811 813 815 818
724 727 730 731 728 724 721 717 720 728 734 738 739 735 736 736 732 733 737 739 740 741 740 740 741 742 745 748 748 750 748 745 750 755 755 756 760 767 771 768 764 763 765 768 767 768 776 776 770 766 763 760 762 762 760 766 779 784 784 786 786 785 786 785 785 785 784 786 784 770 766 776 785 785 782 785 790 787 787 794 801 803 805 808 811 812 814 816
720 722 724 726 725 724 723 722 721 721 723 730 732 729 730 732 732 735 737 734 733 736 738 740 741 741 743 744 745 748 748 749 753 754 753 755 762 770 774 770 770 769 767 768 767 768 773 770 765 763 759 757 760 764 762 761 764 768 773 778 781 782 785 785 780 772 774 785 779 763 764 772 776 778 777 778 785 785 784 789 794 797 803 807 809 812 814 815
718 716 716 717 717 717 716 716 718 717 718 724 727 725 726 730 731 732 732 730 730 733 737 740 738 734 733 736 740 744 747 752 753 749 750 756 763 770 773 772 773 772 770 772 771 768 769 764 760 764 765 762 765 769 766 761 758 759 764 769 773 779 783 781 774 767 770 773 764 760 766 767 766 772 772 772 777 778 779 785 790 794 801 804 807 810 811 813
716 715 715 716 714 712 709 709 714 717 717 722 726 726 727 728 725 724 726 731 732 731 731 732 730 727 729 731 734 739 742 744 745 744 747 753 758 763 766 766 770 772 771 773 773 769 766 762 762 767 767 764 767 769 769 768 764 761 762 762 764 769 774 774 770 768 768 761 755 763 769 763 762 767 769 771 775 776 780 787 791 795 798 801 805 807 808 808
712 711 712 715 716 714 712 711 715 717 716 719 723 724 725 725 722 719 722 726 728 727 726 724 720 721 727 730 731 732 731 729 731 735 740 747 752 755 755 753 760 772 772 770 771 770 765 761 763 768 769 767 768 770 772 772 768 766 764 760 761 767 773 775 770 768 769 764 760 769 773 767 764 766 770 776 781 782 784 786 789 793 796 799 802 803 803 804
710 709 707 710 714 715 714 714 715 716 716 717 718 719 720 720 717 717 721 723 722 722 722 719 716 720 725 728 728 727 726 726 730 732 734 738 741 743 744 744 752 764 769 767 766 766 767 767 770 773 769 765 771 776 775 776 779 777 766 760 766 772 773 773 770 766 766 766 767 773 771 764 765 768 774 781 782 781 780 782 786 791 793 796 798 798 798 799
710 710 707 707 712 715 715 715 717 717 715 713 713 714 715 714 713 716 722 725 724 722 720 716 716 721 725 726 725 726 730 734 738 739 739 739 739 740 743 744 746 751 758 763 763 763 765 766 769 771 763 764 779 785 780 783 784 770 753 748 758 765 763 764 766 764 763 763 766 767 760 755 761 768 772 778 779 775 775 778 782 786 790 793 792 792 794 795